Flag for Germany Weather past 2 weeks in Höxter, North Rhine-Westphalia, Germany

Now
65 °F

Overcast.


Feels Like: 65 °F
Forecast: 50 / 65 °F
Wind: 8 mph from Southwest

Location: Bad Lippspringe

Current Time: Aug 22, 2014 at 1:54:23 PM

Latest Report: Aug 22, 2014 at 1:00 PM


Visibility: 16 mi

Pressure: 29.89 "Hg

Humidity: 50%

Dew point: 46 °F

Location of HöxterLocation

Historic Weather in Höxter — Graph

°F

Höxter temperature yesterday

Maximum temperature yesterday: 63 °F (at 4:00 PM)
Minimum temperature yesterday: 46 °F (at 4:00 AM)
Average temperature yesterday: 55 °F

Past Weeks' High & Low Weather Summary

 TemperatureHumidityPressure
High79 °F (Aug 8, 3:00 PM)98% (Aug 8, 4:00 AM)30.06 "Hg (Aug 8, 4:00 AM)
Low46 °F (Aug 21, 4:00 AM)40% (Aug 8, 3:00 PM)29.61 "Hg (Aug 10, 10:00 PM)
Average60 °F75%29.86 "Hg
* Reported Aug 7 1:00 PM — Aug 22 1:00 PM, Höxter, Weather by CustomWeather, © 2014

Note: Actual official high and low records may vary slightly from our data, if they occured in-between our weather recording intervals... More about our weather records

Advertising

Höxter weather history for previous 24 hours

 ConditionsComfort  
Time TempWeatherWind HumidityBarometerVisibility
1:00 PM
Aug 22
65 °FOvercast.8 mph50%29.89 "Hg16 mi
12:00 PM63 °FOvercast.7 mph52%29.90 "Hg28 mi
11:00 AM64 °FPartly sunny.6 mph50%29.90 "Hg16 mi
10:00 AM62 °FSunny.5 mph58%29.90 "Hg19 mi
9:00 AM57 °FPartly sunny.3 mph67%29.92 "Hg25 mi
8:00 AM54 °FOvercast.2 mph73%29.93 "Hg25 mi
7:00 AM53 °FOvercast.2 mph77%29.93 "Hg25 mi
6:00 AM52 °FPassing clouds.2 mph77%29.93 "Hg22 mi
5:00 AM53 °FPassing clouds.2 mph76%29.94 "Hg25 mi
4:00 AM56 °FOvercast.2 mph70%29.94 "Hg31 mi
3:00 AM55 °FOvercast.2 mph72%29.95 "Hg28 mi
2:00 AM55 °FOvercast.2 mph69%29.96 "Hg28 mi
1:00 AM55 °FOvercast.1 mph71%29.98 "Hg25 mi
12:00 AM54 °FOvercast.1 mph73%29.98 "Hg19 mi
11:00 PM
Aug 21
54 °FPassing clouds.1 mph73%29.98 "Hg17 mi
10:00 PM55 °FOvercast.2 mph72%29.98 "Hg14 mi
9:00 PM54 °FPassing clouds.2 mph75%29.98 "Hg5 mi
8:00 PM60 °FOvercast.2 mph57%29.97 "Hg16 mi
7:00 PM60 °FPartly sunny.3 mph53%29.98 "Hg19 mi
6:00 PM62 °FOvercast.6 mph50%29.99 "Hg17 mi
5:00 PM63 °FPartly sunny.5 mph52%29.99 "Hg19 mi
4:00 PM63 °FOvercast.6 mph54%30.00 "Hg13 mi
3:00 PM61 °FOvercast.5 mph57%30.01 "Hg14 mi
2:00 PM60 °FScattered clouds.3 mph64%30.02 "Hg9 mi
1:00 PM58 °FOvercast.6 mph61%30.03 "Hg12 mi
Weather by CustomWeather, © 2014

See weather overviewHow to use our weather pages